• In Hungary
  • List of Countries
  • For 7 days
  • Water Temperature
  • Satellite Maps
  • Weather Map
  • News
  • Weather Widgets
  • user-avatar
    Login

    Hourly Weather Sumgayit

    Today, 19 August, Saturday

    Time Temperature Precipitation Wind Pressure Humidity
    00:00 +28°C° 0 mm 8 mps 739 mmHg 47%
    01:00 +28°C° 0 mm 8 mps 739 mmHg 44%
    02:00 +28°C° 0 mm 7 mps 739 mmHg 42%
    03:00 +28°C° 0 mm 7 mps 739 mmHg 40%
    04:00 +28°C° 0 mm 7 mps 739 mmHg 41%
    05:00 +27°C° 0 mm 7 mps 739 mmHg 42%
    06:00 +27°C° 0 mm 6 mps 739 mmHg 42%
    07:00 +29°C° 0 mm 6 mps 740 mmHg 40%
    08:00 +30°C° 0 mm 6 mps 740 mmHg 38%
    09:00 +32°C° 0 mm 6 mps 740 mmHg 36%
    10:00 +33°C° 0 mm 6 mps 740 mmHg 34%
    11:00 +33°C° 0 mm 5 mps 740 mmHg 32%
    12:00 +34°C° 0 mm 5 mps 740 mmHg 30%
    13:00 +34°C° 0 mm 5 mps 740 mmHg 29%
    14:00 +35°C° 0 mm 5 mps 740 mmHg 27%
    15:00 +35°C° 0 mm 6 mps 740 mmHg 25%
    16:00 +34°C° 0 mm 5 mps 740 mmHg 25%
    17:00 +34°C° 0 mm 5 mps 740 mmHg 25%
    18:00 +33°C° 0 mm 5 mps 740 mmHg 26%
    19:00 +32°C° 0 mm 4 mps 740 mmHg 28%
    20:00 +32°C° 0 mm 4 mps 741 mmHg 31%
    21:00 +30°C° 0 mm 4 mps 741 mmHg 34%
    22:00 +29°C° 0 mm 3 mps 741 mmHg 35%
    23:00 +29°C° 0 mm 3 mps 740 mmHg 36%

    Tomorrow, 20 August, Sunday

    Time Temperature Precipitation Wind Pressure Humidity
    00:00 +29°C° 0 mm 3 mps 740 mmHg 37%
    01:00 +28°C° 0 mm 3 mps 740 mmHg 36%
    02:00 +28°C° 0 mm 3 mps 740 mmHg 35%
    03:00 +28°C° 0 mm 3 mps 740 mmHg 34%
    04:00 +28°C° 0 mm 3 mps 740 mmHg 36%
    05:00 +28°C° 0 mm 3 mps 740 mmHg 38%
    06:00 +28°C° 0 mm 3 mps 740 mmHg 40%
    07:00 +30°C° 0 mm 4 mps 741 mmHg 38%
    08:00 +32°C° 0 mm 5 mps 741 mmHg 36%
    09:00 +33°C° 0 mm 6 mps 741 mmHg 34%
    10:00 +34°C° 0 mm 6 mps 741 mmHg 33%
    11:00 +34°C° 0 mm 7 mps 741 mmHg 32%
    12:00 +35°C° 0 mm 7 mps 741 mmHg 31%
    13:00 +35°C° 0 mm 7 mps 740 mmHg 30%
    14:00 +35°C° 0 mm 7 mps 740 mmHg 29%
    15:00 +34°C° 0 mm 6 mps 740 mmHg 29%
    16:00 +34°C° 0 mm 6 mps 740 mmHg 29%
    17:00 +33°C° 0 mm 6 mps 739 mmHg 30%
    18:00 +32°C° 0 mm 5 mps 739 mmHg 30%
    19:00 +32°C° 0 mm 4 mps 740 mmHg 32%
    20:00 +30°C° 0 mm 4 mps 740 mmHg 34%
    21:00 +30°C° 0 mm 3 mps 740 mmHg 36%
    22:00 +29°C° 0 mm 3 mps 740 mmHg 37%
    23:00 +29°C° 0 mm 3 mps 739 mmHg 38%

    Day after tomorrow, 21 August, Monday

    Time Temperature Precipitation Wind Pressure Humidity
    00:00 +28°C° 0 mm 2 mps 739 mmHg 39%
    01:00 +28°C° 0 mm 2 mps 739 mmHg 38%
    02:00 +28°C° 0 mm 2 mps 738 mmHg 37%
    03:00 +27°C° 0 mm 2 mps 738 mmHg 36%
    04:00 +27°C° 0 mm 1 mps 738 mmHg 35%
    05:00 +28°C° 0 mm 1 mps 738 mmHg 34%
    06:00 +28°C° 0 mm 1 mps 738 mmHg 33%
    07:00 +29°C° 0 mm 2 mps 738 mmHg 31%
    08:00 +31°C° 0 mm 2 mps 738 mmHg 29%
    09:00 +34°C° 0 mm 3 mps 739 mmHg 26%
    10:00 +34°C° 0 mm 4 mps 738 mmHg 26%
    11:00 +35°C° 0 mm 4 mps 738 mmHg 25%
    12:00 +36°C° 0 mm 5 mps 738 mmHg 24%
    13:00 +36°C° 0 mm 5 mps 738 mmHg 24%
    14:00 +36°C° 0 mm 6 mps 737 mmHg 24%
    15:00 +36°C° 0 mm 6 mps 737 mmHg 24%
    16:00 +35°C° 0 mm 5 mps 737 mmHg 25%
    17:00 +34°C° 0 mm 5 mps 737 mmHg 26%
    18:00 +34°C° 0 mm 5 mps 737 mmHg 27%
    19:00 +33°C° 0 mm 4 mps 737 mmHg 28%
    20:00 +31°C° 0 mm 3 mps 737 mmHg 30%
    21:00 +30°C° 0 mm 2 mps 737 mmHg 32%
    22:00 +30°C° 0 mm 2 mps 737 mmHg 32%
    23:00 +29°C° 0 mm 2 mps 737 mmHg 33%

    22 August, Tuesday

    Time Temperature Precipitation Wind Pressure Humidity
    00:00 +29°C° 0 mm 2 mps 737 mmHg 33%
    01:00 +28°C° 0 mm 2 mps 736 mmHg 34%
    02:00 +28°C° 0 mm 1 mps 736 mmHg 35%
    03:00 +28°C° 0 mm 1 mps 736 mmHg 35%
    04:00 +28°C° 0 mm 1 mps 736 mmHg 35%
    05:00 +28°C° 0 mm 2 mps 737 mmHg 35%
    06:00 +28°C° 0 mm 2 mps 737 mmHg 35%
    07:00 +29°C° 0 mm 3 mps 737 mmHg 34%
    08:00 +32°C° 0 mm 4 mps 737 mmHg 33%
    09:00 +33°C° 0 mm 4 mps 737 mmHg 33%
    10:00 +34°C° 0 mm 5 mps 737 mmHg 32%
    11:00 +34°C° 0 mm 5 mps 737 mmHg 30%
    12:00 +35°C° 0 mm 6 mps 737 mmHg 29%
    13:00 +35°C° 0 mm 6 mps 737 mmHg 29%
    14:00 +35°C° 0 mm 7 mps 736 mmHg 29%
    15:00 +35°C° 0 mm 7 mps 736 mmHg 28%
    16:00 +34°C° 0 mm 6 mps 736 mmHg 29%
    17:00 +33°C° 0 mm 6 mps 736 mmHg 29%
    18:00 +32°C° 0 mm 5 mps 736 mmHg 30%
    19:00 +32°C° 0 mm 4 mps 737 mmHg 31%
    20:00 +30°C° 0 mm 4 mps 737 mmHg 31%
    21:00 +30°C° 0 mm 3 mps 737 mmHg 32%
    22:00 +29°C° 0 mm 3 mps 737 mmHg 32%
    23:00 +29°C° 0 mm 2 mps 737 mmHg 32%

    23 August, Wednesday

    Time Temperature Precipitation Wind Pressure Humidity
    00:00 +28°C° 0 mm 2 mps 737 mmHg 32%
    01:00 +28°C° 0 mm 2 mps 737 mmHg 32%
    02:00 +28°C° 0 mm 2 mps 737 mmHg 33%
    03:00 +28°C° 0 mm 2 mps 737 mmHg 33%
    04:00 +28°C° 0 mm 2 mps 737 mmHg 34%
    05:00 +28°C° 0 mm 2 mps 737 mmHg 36%
    06:00 +28°C° 0 mm 2 mps 738 mmHg 38%
    07:00 +29°C° 0 mm 3 mps 738 mmHg 36%
    08:00 +32°C° 0 mm 4 mps 738 mmHg 34%
    09:00 +33°C° 0 mm 5 mps 739 mmHg 32%
    10:00 +34°C° 0 mm 6 mps 739 mmHg 30%
    11:00 +34°C° 0 mm 6 mps 739 mmHg 28%
    12:00 +35°C° 0 mm 7 mps 738 mmHg 26%
    13:00 +35°C° 0 mm 7 mps 738 mmHg 25%
    14:00 +35°C° 0 mm 7 mps 738 mmHg 24%
    15:00 +35°C° 0 mm 7 mps 738 mmHg 23%
    16:00 +34°C° 0 mm 6 mps 738 mmHg 23%
    17:00 +33°C° 0 mm 5 mps 738 mmHg 24%
    18:00 +32°C° 0 mm 5 mps 738 mmHg 24%
    19:00 +32°C° 0 mm 4 mps 738 mmHg 26%
    20:00 +30°C° 0 mm 3 mps 738 mmHg 27%
    21:00 +29°C° 0 mm 2 mps 739 mmHg 29%
    22:00 +29°C° 0 mm 2 mps 738 mmHg 29%
    23:00 +29°C° 0 mm 2 mps 738 mmHg 30%

    24 August, Thursday

    Time Temperature Precipitation Wind Pressure Humidity
    00:00 +28°C° 0 mm 2 mps 738 mmHg 30%
    01:00 +28°C° 0 mm 2 mps 738 mmHg 31%
    02:00 +28°C° 0 mm 2 mps 738 mmHg 32%
    03:00 +27°C° 0 mm 2 mps 738 mmHg 33%
    04:00 +27°C° 0 mm 2 mps 738 mmHg 35%
    05:00 +27°C° 0 mm 2 mps 738 mmHg 37%
    06:00 +28°C° 0 mm 2 mps 738 mmHg 39%
    07:00 +29°C° 0 mm 3 mps 739 mmHg 36%
    08:00 +32°C° 0 mm 4 mps 739 mmHg 32%
    09:00 +33°C° 0 mm 5 mps 739 mmHg 28%
    10:00 +34°C° 0 mm 5 mps 739 mmHg 26%
    11:00 +35°C° 0 mm 6 mps 739 mmHg 25%
    12:00 +35°C° 0 mm 6 mps 739 mmHg 23%
    13:00 +35°C° 0 mm 6 mps 739 mmHg 23%
    14:00 +35°C° 0 mm 6 mps 738 mmHg 23%
    15:00 +35°C° 0 mm 6 mps 738 mmHg 23%
    16:00 +34°C° 0 mm 5 mps 739 mmHg 24%
    17:00 +33°C° 0 mm 5 mps 739 mmHg 25%
    18:00 +32°C° 0 mm 4 mps 739 mmHg 27%
    19:00 +31°C° 0 mm 3 mps 739 mmHg 27%
    20:00 +30°C° 0 mm 3 mps 740 mmHg 27%
    21:00 +30°C° 0 mm 2 mps 740 mmHg 28%
    22:00 +29°C° 0 mm 3 mps 740 mmHg 30%
    23:00 +29°C° 0 mm 4 mps 740 mmHg 33%
    Show more